Regional Weather Roundup
Issued by NWS Upton, NY

Home | Current Version | Previous Version | Text Only | Print | Product List | Glossary On
Versions: 1 2 3 4 5 6 7 8 9 10 11 12 13 14 15 16 17 18 19 20 21 22 23 24 25 26 27 28 29 30 31 32 33 34 35 36 37 38 39 40 41 42 43 44 45 46 47 48 49 50
000
ASUS41 KOKX 282205
RWROKX

REGIONAL WEATHER ROUNDUP
NATIONAL WEATHER SERVICE NEW YORK NY
600 PM EDT MON JUL 28 2014

NOTE: "FAIR" INDICATES FEW OR NO CLOUDS BELOW 12,000 FEET WITH NO
SIGNIFICANT WEATHER AND/OR OBSTRUCTIONS TO VISIBILITY.

NYZ071-072-176-178-NJZ106-104-282300-
NEW YORK CITY METRO AREA


CITY           SKY/WX    TMP DP  RH WIND       PRES   REMARKS
CENTRAL PARK   MOSUNNY   80  58  46 W9G18     29.58R
LAGUARDIA APRT PTSUNNY   83  57  41 W20G26    29.54R
KENNEDY INTL   MOSUNNY   82  59  45 SW25G32   29.56R
NEWARK/LIBERTY PTSUNNY   83  58  42 W20G35    29.55R
BRNX BOT. GARD   N/A     81  57  44 SW13      29.56R
TETERBORO      SUNNY     84  58  40 W16G26    29.54R
$$

NYZ177-179-078>081-282300-
LONG ISLAND NEW YORK

CITY           SKY/WX    TMP DP  RH WIND       PRES   REMARKS
FARMINGDALE    SUNNY     82  58  43 SW21G26   29.55R
ISLIP          MOSUNNY   84  59  42 W20G25    29.52S
SHIRLEY        SUNNY     80  67  64 SW13      29.55R
WESTHAMPTON    SUNNY     78  67  68 SW13G26   29.55S
MONTAUK POINT    N/A     77  68  73 SW13G23   29.54S
$$

NYZ052-065-067-282300-
HUDSON VALLEY

CITY           SKY/WX    TMP DP  RH WIND       PRES   REMARKS
WHITE PLAINS   MOSUNNY   79  59  50 W13G25    29.55R
NEWBURGH       MOSUNNY   68  66  94 SW16      29.56R
MONTGOMERY     PTSUNNY   73  63  70 W9        29.56R
POUGHKEEPSIE   PTSUNNY   75  63  66 SW12G17   29.53R
ALBANY         CLOUDY    69  65  86 W6        29.51R
$$

NJZ001-105-106-008-010-013-015-019>022-104-282300-
NEW JERSEY

CITY           SKY/WX    TMP DP  RH WIND       PRES   REMARKS
NEWARK/LIBERTY PTSUNNY   83  58  42 W20G35    29.55R
TETERBORO      SUNNY     84  58  40 W16G26    29.54R
CALDWELL       SUNNY     81  57  43 W10G23    29.56R
MORRISTOWN     MOSUNNY   81  59  47 W17G26    29.56S
SOMERVILLE     MOSUNNY   80  58  46 SW8G17    29.56R
LINDEN         FAIR      83  58  41 W16G22    29.58R
SUSSEX         PTSUNNY   73  63  70 VRB3      29.59R
ANDOVER          N/A     67  62  84 CALM      29.62R
TRENTON        MOSUNNY   81  58  45 MISG      29.59S
MILLVILLE      MOSUNNY   83  59  44 W16       29.65R
ATLANTIC CITY  MOSUNNY   83  58  42 W14G26    29.63R
WRIGHTSTOWN    PTSUNNY   80  59  49 W13       29.59R
TOMS RIVER     CLOUDY    81  61  50 W10       29.61R
BELMAR         PTSUNNY   79  59  50 W13       29.59S
$$

PAZ047>061-062-071-282300-
EASTERN PENNSYLVANIA

CITY           SKY/WX    TMP DP  RH WIND       PRES   REMARKS
PHILADELPHIA   MOSUNNY   82  58  43 W18G26    29.63R
ALLENTOWN      CLOUDY    68  61  78 W7        29.64R
SCRANTON       CLOUDY    68  61  78 W10       29.66R
$$

CTZ002-004>006-009-010-012-RIZ004-006-007-MAZ004-011-015-282300-
SOUTHERN NEW ENGLAND
 IN CT

CITY           SKY/WX    TMP DP  RH WIND       PRES   REMARKS
BRADLEY INTL   TSTM      68  62  81 W9G31     29.51R
HARTFORD       PTSUNNY   78  63  59 W10G22    29.50R
DANBURY        MOSUNNY   77  59  53 W12G21    29.55R
WTRBRY/OXFORD  PTSUNNY   75  63  64 NW12G20   29.56R
BRIDGEPORT     MOSUNNY   81  65  58 SW16      29.52R
MERIDEN        MOSUNNY   81  61  50 W9G17     29.51R
NEW HAVEN      MOSUNNY   81  64  56 SW12G22   29.51R
CHESTER        FAIR      81  63  54 SW12G22   29.53R
GROTON         MOSUNNY   75  67  76 SW16      29.51S
WILLIMANTIC    SUNNY     81  62  52 SW16G25   29.49R

 IN RI

CITY           SKY/WX    TMP DP  RH WIND       PRES   REMARKS
PROVIDENCE     MOSUNNY   80  68  66 SW17G26   29.50R
BLOCK ISLAND   SUNNY     75  66  73 SW18      29.53S
WESTERLY       SUNNY     79  67  66 SW10      29.52S

 IN MA

CITY           SKY/WX    TMP DP  RH WIND       PRES   REMARKS
BOSTON         MOSUNNY   82  68  62 S16       29.44S
WORCESTER      MOSUNNY   71  67  87 SW12      29.50F
WESTFIELD      PTSUNNY   71  62  73 SW12      29.51R
PROVINCETOWN   SUNNY     77  72  83 S13       29.50S
NANTUCKET      PTSUNNY   72  69  90 S15       29.56R FOG
$$

ANZ330-335-338-340-345-350-353-355-282300-
COASTAL MARINE OBSERVATIONS


STATION/POSITION TIME  SKY/WX   TEMP    WIND        PRES    VSBY  WAVE
                                AIR SEA DIR/SP/G                  HT/PER
                 (UTC)          (F)     (DEG/KT/KT) (MB)    (MI)  (FT/S)
NY HARB ENTRANCE NOT AVBL
4S FIRE IS       NOT AVBL
23SW MTP         2200            74 69               999.8          5/ 7
HUDSON CANYON    2200            77 75  250/ 17/ 19 1002.3          5/ 6
EXECUTION ROCKS  2200            79 71  260/ 17/ 23   N/A
WESTERN LI SOUND 2200            78     250/ 14/ 16   N/A           1/ 3
CENTRAL LI SOUND 2100            77 74  230/ 16/ 19   N/A           1/ 2
EASTERN LI SOUND 2100            74 68  220/ 16/ 19   N/A
ROBBINS REEF     2200            80     270/ 22/ 29   N/A
$$


>>>>>>>>>>>>>>>>>>>>>>>>>>>> KEY <<<<<<<<<<<<<<<<<<<<<<<<<<<
>                                                          <
>     SKY/WX - SKY CONDITION/PRESENT WEATHER               <
>     TMP    - TEMPERATURE IN FAHRENHEIT                   <
>     DP     - DEWPOINT IN FAHRENHEIT                      <
>     RH     - RELATIVE HUMIDITY IN PERCENT                <
>     WIND   - DIRECTION AND SPEED IN MPH                  <
>     PRES   - MEAN SEA LEVEL PRESSURE IN INCHES OF HG     <
>     WCI    - WIND CHILL INDEX                            <
>     VSB    - VISIBILITY IN MILES                         <
>     HX     - HEAT INDEX                                  <
>     TC     - TEMPERATURE IN CELSIUS                      <
>     VRB    - VARIABLE WIND DIRECTION                     <
>                                                          <
>>>>>>>>>>>>>>>>>>>>>>>>>>>> KEY <<<<<<<<<<<<<<<<<<<<<<<<<<<





USA.gov is the U.S. government's official web portal to all federal, state and local government web resources and services.